Wind_Speed
32 33 34 33 31 31 33 35 35 36 38 41 44 47 51 54 57 59 63 65 68 70 73 74 77 81 85 90 94 98 98 97 93 86 79 73 70 70 70 71 72 71 69 67
29 29 28 28 28 29 31 33 37 39 41 42 43 46 50 52 54 57 60 62 67 68 70 76 80 84 88 93 96 97 97 92 85 77 72 70 71 72 72 72 69 66 64 62
27 26 26 26 26 26 28 31 34 36 39 42 44 46 48 51 53 56 58 62 66 69 75 78 84 88 92 95 96 95 90 85 78 73 72 72 73 74 71 68 66 64 62 61
22 21 23 24 25 28 32 35 37 42 44 47 47 49 51 53 55 59 63 65 69 73 78 83 87 90 93 93 91 89 85 78 74 73 73 74 74 72 67 65 64 63 62 59
20 22 24 27 30 32 34 37 40 43 46 49 50 51 53 55 57 60 65 68 72 76 80 84 87 91 90 88 87 83 79 75 74 74 74 75 74 71 67 64 62 61 61 59
24 25 26 28 31 34 36 39 42 46 49 52 53 53 53 55 58 62 66 70 75 77 82 87 88 89 86 86 83 79 75 73 73 73 75 75 73 69 65 62 59 57 57 56
29 29 29 32 35 37 40 42 47 51 53 57 54 53 55 57 60 65 69 73 76 80 82 86 88 87 85 83 79 76 74 72 71 74 75 75 72 68 62 58 56 53 51 50
33 33 34 37 40 42 44 47 51 54 56 58 54 53 56 59 64 69 71 75 78 79 83 85 86 83 83 79 76 74 72 70 72 74 75 73 70 65 59 55 52 50 47 44
37 37 39 41 44 44 47 50 53 56 60 60 56 56 60 64 68 71 74 75 76 80 84 85 84 82 80 76 74 72 70 70 73 74 73 71 66 61 56 53 49 46 44 42
41 41 42 44 43 46 50 52 55 58 62 59 58 60 64 68 71 74 75 76 79 82 85 85 83 82 78 75 73 70 69 70 72 73 70 69 63 58 53 49 45 42 40 38
45 44 40 42 46 50 53 54 57 61 64 63 62 64 68 70 73 75 76 78 81 85 85 85 82 79 76 74 70 69 69 71 72 71 68 65 59 54 50 46 43 40 40 40
47 43 41 46 49 52 55 56 60 64 67 65 65 67 69 71 75 76 76 80 84 86 86 83 81 77 75 71 69 69 71 71 71 70 65 61 56 50 45 42 40 37 35 34
47 45 48 49 51 53 56 59 63 66 67 66 67 69 70 74 76 76 79 83 87 86 85 81 79 76 72 70 69 71 71 71 69 66 60 57 52 46 43 40 37 34 33 32
48 48 48 51 53 54 56 62 64 65 67 68 69 71 72 77 77 79 81 86 87 86 82 79 77 74 71 70 71 71 71 70 66 60 55 53 49 44 40 36 34 31 29 28
48 47 50 51 52 54 61 63 65 67 68 70 71 72 76 78 78 81 85 87 86 84 80 77 75 72 71 71 72 72 70 66 59 54 52 49 46 41 37 34 32 31 29 28
48 49 50 51 53 59 63 65 67 68 69 70 72 75 78 79 81 84 86 85 84 81 78 75 72 72 70 73 72 70 66 61 55 51 47 46 42 38 34 32 30 28 26 24
47 49 52 56 59 63 64 66 67 68 69 71 75 77 80 82 83 84 85 82 80 78 76 72 73 72 74 72 72 68 64 59 55 48 45 42 39 35 32 30 28 26 24 20
51 53 55 58 62 63 64 66 67 68 71 73 76 79 82 82 81 82 80 79 76 75 71 71 73 74 74 72 71 67 63 58 52 46 44 40 36 33 30 27 25 23 21 18
50 53 56 59 61 62 64 66 67 70 72 75 78 80 81 81 80 78 77 74 72 68 68 70 74 75 74 73 69 66 61 56 50 46 42 38 34 31 28 25 23 21 19 16
53 54 55 57 59 63 65 66 69 72 73 76 80 80 80 79 76 74 72 69 66 64 66 70 74 74 73 72 66 63 59 55 52 45 41 37 33 30 27 24 21 20 18 15
52 55 57 59 62 64 66 68 70 71 74 78 80 79 78 75 72 70 67 66 61 62 64 70 72 73 73 71 65 60 56 55 51 44 41 36 32 29 26 23 21 18 17 15
54 56 58 60 62 64 66 68 71 74 76 79 79 77 74 71 69 65 64 58 57 58 64 69 69 71 73 68 64 58 53 53 49 45 42 36 30 27 24 22 20 17 15 14
57 60 63 64 64 65 68 71 74 76 80 79 76 73 70 67 64 62 58 54 53 58 64 66 67 69 71 66 61 58 53 53 48 45 41 36 30 25 22 20 18 16 15 12
62 64 67 68 68 69 71 73 77 79 78 75 71 68 65 63 61 58 52 51 52 58 62 64 64 67 68 64 60 56 54 52 48 45 41 36 31 26 22 20 19 17 14 12
68 69 70 70 71 71 73 75 76 76 72 69 66 65 62 59 57 52 48 48 52 58 61 60 61 63 65 63 61 56 54 52 49 44 43 37 32 27 23 20 19 18 16 14
69 69 69 69 69 71 72 73 72 68 67 65 62 61 58 56 52 46 45 47 53 57 58 57 56 58 62 61 61 58 54 52 49 45 42 39 34 30 25 22 19 18 17 15
69 68 68 68 68 68 68 67 65 65 65 62 59 56 54 51 45 42 43 48 52 56 56 55 52 54 57 59 60 58 55 52 50 47 44 40 36 33 27 23 21 18 17 16
Wind_Direction
283 284 285 285 290 296 299 301 302 301 299 300 301 303 305 307 308 308 309 310 311 314 316 317 317 318 318 318 319 321 322 322 321 321 323 326 328 330 330 329 327 327 327 327
283 285 286 287 292 294 295 298 302 307 309 310 311 311 310 309 311 313 314 316 318 318 319 319 319 320 320 319 321 322 323 323 324 326 328 329 331 331 331 329 328 328 329 329
289 289 293 302 309 311 312 314 316 317 318 318 318 316 316 317 317 321 321 320 320 320 321 322 321 321 321 322 323 323 324 326 327 328 329 329 330 332 332 331 330 330 330 331
295 301 309 312 313 315 317 319 320 321 321 319 319 319 319 319 321 321 321 322 323 323 323 323 322 321 322 323 324 325 326 328 329 330 329 329 331 334 333 331 331 330 331 332
292 295 300 306 313 316 319 323 324 324 324 323 319 319 321 323 322 320 321 323 324 324 323 321 320 321 323 325 325 326 328 330 331 331 330 332 334 334 333 332 332 332 332 333
289 293 302 309 311 317 322 324 323 325 328 327 325 323 323 322 322 323 324 324 324 323 322 321 322 324 325 327 327 329 331 331 331 331 332 334 334 335 334 332 332 333 333 333
285 291 297 305 309 312 317 321 322 326 326 330 328 324 322 325 325 324 325 325 323 321 323 323 325 326 328 329 329 331 331 331 331 332 333 334 334 334 334 333 333 333 334 334
284 288 292 301 305 308 313 318 322 326 326 328 326 326 327 325 326 326 326 325 322 323 324 326 327 328 329 330 331 331 332 331 332 333 334 335 335 336 335 334 334 335 335 337
284 287 292 296 300 305 311 316 321 325 326 327 325 326 327 326 326 326 325 325 325 326 327 328 329 330 331 332 332 332 332 332 333 334 335 335 336 337 336 336 337 339 338 339
284 292 295 295 297 308 313 316 319 322 326 326 326 326 326 326 326 326 325 325 327 328 328 329 331 332 332 333 333 333 332 333 334 335 336 335 337 338 337 338 339 340 339 341
286 289 294 295 303 312 314 314 318 321 325 325 325 325 325 325 326 326 327 328 329 328 330 331 332 332 333 334 334 333 334 334 335 335 335 335 337 339 339 340 342 343 343 344
283 288 292 297 306 313 311 313 315 321 322 322 323 324 324 325 326 327 329 331 330 330 331 332 332 333 334 335 334 334 335 335 335 335 335 335 338 339 340 342 343 344 344 345
281 287 293 300 307 310 309 311 315 320 320 321 322 323 324 326 327 328 331 331 331 331 331 332 333 334 335 335 335 335 335 335 335 335 334 336 338 340 342 343 344 345 346 346
283 291 296 300 306 306 307 310 317 317 319 320 321 323 324 326 327 329 331 331 331 332 333 333 334 335 335 336 336 336 335 336 336 336 335 337 340 341 342 345 344 344 345 342
286 292 295 301 304 302 304 313 313 316 318 319 321 323 325 327 328 329 330 331 332 332 333 333 334 335 336 337 337 336 336 337 338 337 336 338 341 342 343 345 345 346 347 347
288 293 297 300 296 300 308 309 313 315 317 320 322 323 325 327 327 329 330 331 331 332 332 334 334 335 338 338 337 338 338 339 340 339 338 339 342 343 344 346 347 347 346 348
286 290 291 292 298 303 305 309 312 314 316 320 321 322 324 325 326 328 330 330 331 331 333 333 334 337 340 338 338 339 340 342 342 342 340 340 342 343 344 346 348 349 347 348
282 287 292 296 298 302 306 309 311 314 316 318 319 322 324 325 326 328 329 329 330 332 333 333 335 339 340 340 340 341 342 342 344 344 342 341 343 344 344 347 348 349 347 349
284 288 291 295 300 304 306 309 311 312 315 316 319 321 323 325 326 328 328 329 330 333 332 334 337 339 341 342 341 341 343 344 345 344 343 343 344 344 343 346 348 348 346 348
288 292 295 299 301 303 306 308 309 311 314 317 319 321 323 324 326 327 328 329 332 332 334 335 337 339 342 343 342 342 343 345 345 345 345 343 344 344 343 344 347 346 345 344
289 292 295 299 301 303 305 306 308 310 313 317 319 322 323 325 326 326 328 330 332 333 335 336 337 340 342 343 343 344 345 345 346 347 345 343 342 343 343 343 344 345 344 342
289 293 296 299 301 302 303 304 307 310 314 317 320 322 323 324 325 327 328 331 332 334 335 336 337 340 344 344 345 346 346 347 347 348 346 344 341 341 342 342 342 341 342 341
289 292 295 297 298 300 301 304 307 310 314 317 318 321 322 323 325 326 328 330 332 333 334 336 337 340 345 346 348 348 349 350 350 350 350 348 343 341 341 339 338 339 337 334
290 293 295 296 296 298 300 304 307 310 313 315 318 320 322 322 324 326 326 329 333 332 334 336 338 341 345 348 351 351 351 352 353 353 354 352 351 346 341 338 336 334 334 329
289 293 295 296 297 297 300 303 306 309 312 314 317 319 320 321 322 324 325 330 331 331 333 336 338 342 345 350 352 354 355 354 355 355 355 354 353 350 346 338 335 333 330 326
290 292 294 294 296 298 301 302 305 307 311 314 316 318 318 319 320 321 325 329 330 331 333 335 337 342 346 351 355 356 357 357 357 356 355 356 355 351 345 342 334 331 328 323
290 291 292 294 296 298 299 301 302 306 311 313 315 315 317 317 318 319 325 328 328 331 333 334 335 341 345 350 355 357 358 358 359 359 358 357 357 356 350 342 338 330 325 321
Height
10685 10683 10681 10678 10676 10673 10670 10666 10663 10659 10654 10649 10643 10636 10629 10621 10613 10604 10595 10585 10574 10561 10548 10536 10522 10508 10492 10476 10459 10442 10422 10404 10385 10366 10349 10333 10319 10306 10292 10278 10263 10249 10234 10220
10678 10676 10673 10671 10670 10667 10664 10660 10656 10650 10645 10639 10634 10627 10618 10610 10602 10593 10583 10571 10560 10547 10535 10522 10507 10493 10478 10460 10443 10424 10406 10387 10369 10351 10336 10323 10308 10294 10280 10265 10251 10238 10223 10210
10670 10668 10666 10664 10662 10659 10656 10653 10648 10643 10637 10630 10624 10616 10608 10599 10590 10581 10570 10559 10548 10536 10522 10508 10493 10478 10461 10444 10426 10408 10390 10372 10355 10340 10325 10312 10297 10283 10267 10252 10239 10225 10213 10201
10664 10661 10659 10658 10656 10653 10650 10646 10641 10634 10628 10621 10614 10606 10597 10589 10580 10569 10559 10548 10536 10523 10509 10495 10479 10462 10446 10429 10411 10393 10377 10360 10344 10329 10315 10301 10287 10272 10258 10243 10229 10215 10202 10192
10659 10657 10655 10653 10650 10646 10642 10639 10633 10626 10619 10612 10604 10596 10587 10578 10569 10559 10548 10536 10524 10511 10497 10482 10466 10450 10433 10415 10397 10380 10364 10348 10333 10319 10305 10291 10276 10262 10248 10234 10221 10208 10193 10181
10653 10651 10649 10646 10643 10639 10635 10631 10626 10619 10612 10603 10594 10586 10578 10569 10560 10548 10537 10525 10512 10498 10484 10468 10451 10434 10418 10401 10384 10368 10352 10337 10324 10310 10296 10281 10266 10253 10239 10226 10214 10201 10189 10177
10646 10645 10642 10639 10636 10632 10628 10624 10618 10611 10603 10595 10586 10578 10569 10560 10549 10538 10526 10514 10500 10486 10471 10454 10438 10420 10403 10387 10371 10356 10341 10328 10315 10301 10286 10271 10257 10243 10231 10219 10207 10197 10186 10175
10638 10638 10635 10631 10627 10624 10621 10616 10609 10603 10595 10587 10579 10570 10561 10550 10539 10528 10515 10501 10487 10473 10457 10442 10424 10407 10390 10374 10359 10345 10332 10319 10305 10291 10276 10262 10248 10235 10222 10211 10201 10190 10181 10172
10630 10629 10627 10623 10619 10617 10613 10608 10601 10594 10586 10578 10569 10560 10550 10540 10529 10517 10504 10490 10475 10460 10444 10427 10411 10394 10378 10363 10349 10335 10323 10310 10296 10281 10268 10253 10241 10229 10216 10204 10195 10185 10175 10167
10621 10621 10618 10614 10610 10609 10604 10598 10592 10585 10577 10568 10559 10550 10540 10529 10518 10505 10492 10478 10463 10447 10431 10414 10398 10382 10366 10353 10340 10327 10314 10301 10286 10272 10259 10246 10233 10221 10210 10200 10190 10181 10173 10164
10612 10612 10610 10605 10602 10600 10594 10588 10583 10575 10567 10558 10549 10540 10529 10518 10506 10493 10480 10465 10449 10433 10417 10401 10385 10371 10357 10343 10331 10318 10305 10291 10277 10264 10251 10239 10227 10216 10204 10194 10186 10178 10168 10160
10603 10604 10600 10596 10594 10592 10585 10579 10573 10566 10557 10548 10539 10530 10519 10507 10495 10481 10467 10452 10436 10420 10404 10389 10375 10361 10347 10335 10322 10309 10295 10282 10269 10256 10243 10232 10221 10211 10201 10192 10184 10177 10169 10162
10595 10596 10591 10588 10586 10582 10575 10570 10563 10556 10547 10538 10529 10519 10508 10496 10484 10470 10455 10439 10423 10408 10394 10378 10364 10351 10339 10326 10314 10300 10286 10273 10260 10248 10236 10225 10215 10206 10197 10188 10181 10175 10168 10161
10586 10586 10582 10580 10578 10572 10566 10560 10554 10546 10537 10528 10519 10508 10497 10485 10472 10458 10443 10427 10413 10397 10383 10369 10355 10342 10330 10318 10304 10291 10277 10264 10252 10240 10229 10219 10210 10201 10194 10187 10180 10174 10168 10162
10577 10576 10573 10571 10567 10562 10557 10551 10544 10536 10526 10517 10508 10497 10485 10473 10460 10446 10431 10416 10401 10387 10373 10360 10347 10334 10322 10309 10296 10282 10269 10256 10245 10233 10223 10214 10206 10198 10191 10185 10178 10172 10167 10161
10568 10566 10564 10562 10557 10552 10548 10540 10533 10525 10515 10506 10496 10485 10473 10461 10448 10435 10419 10405 10390 10377 10364 10352 10339 10327 10314 10301 10287 10274 10261 10250 10238 10228 10218 10210 10202 10195 10188 10183 10177 10172 10167 10162
10558 10557 10554 10551 10547 10542 10536 10529 10521 10513 10505 10496 10485 10474 10463 10450 10437 10423 10409 10395 10382 10369 10356 10343 10331 10319 10306 10292 10279 10266 10254 10243 10232 10222 10213 10205 10199 10192 10186 10181 10176 10171 10167 10163
10548 10547 10544 10540 10535 10531 10525 10518 10511 10502 10494 10484 10474 10464 10452 10439 10426 10413 10400 10387 10374 10362 10348 10336 10323 10311 10299 10285 10272 10259 10248 10237 10227 10217 10209 10201 10195 10190 10184 10179 10175 10171 10167 10164
10538 10536 10533 10529 10525 10519 10513 10507 10499 10491 10483 10473 10464 10453 10441 10428 10416 10403 10391 10379 10367 10355 10343 10330 10317 10305 10292 10280 10266 10253 10242 10232 10223 10214 10205 10198 10192 10187 10182 10177 10174 10170 10167 10165
10527 10525 10521 10518 10513 10508 10501 10495 10487 10479 10471 10462 10453 10441 10430 10417 10406 10394 10383 10371 10360 10349 10338 10325 10313 10300 10287 10274 10261 10249 10238 10227 10219 10210 10202 10195 10189 10185 10181 10176 10172 10170 10167 10165
10516 10514 10510 10506 10501 10495 10490 10483 10476 10468 10460 10452 10441 10430 10419 10408 10397 10386 10375 10365 10354 10343 10333 10321 10308 10296 10283 10269 10256 10245 10234 10224 10214 10206 10199 10192 10187 10182 10179 10175 10172 10169 10167 10165
10504 10501 10498 10494 10489 10483 10477 10470 10464 10456 10449 10440 10430 10420 10409 10399 10388 10379 10368 10359 10349 10339 10329 10317 10304 10292 10279 10266 10253 10242 10231 10221 10211 10203 10195 10189 10184 10180 10176 10173 10171 10168 10166 10165
10492 10490 10486 10481 10476 10470 10464 10458 10451 10445 10437 10428 10419 10410 10400 10390 10380 10371 10362 10353 10344 10335 10324 10313 10301 10289 10277 10263 10251 10239 10229 10219 10209 10201 10193 10186 10181 10177 10173 10171 10168 10166 10165 10164
10480 10476 10472 10467 10462 10457 10451 10444 10438 10432 10424 10416 10409 10400 10391 10381 10373 10364 10356 10348 10339 10330 10320 10309 10298 10286 10275 10263 10250 10238 10228 10218 10208 10199 10191 10185 10179 10174 10171 10169 10166 10164 10163 10162
10465 10461 10457 10452 10448 10442 10437 10431 10426 10419 10412 10406 10398 10390 10382 10373 10365 10357 10350 10342 10334 10326 10316 10306 10296 10285 10274 10262 10249 10238 10227 10217 10208 10199 10191 10184 10178 10173 10170 10166 10164 10163 10161 10160
10450 10446 10442 10437 10433 10428 10423 10418 10412 10406 10401 10395 10388 10381 10373 10365 10358 10351 10344 10337 10329 10321 10312 10303 10293 10284 10273 10262 10249 10237 10228 10218 10208 10199 10191 10184 10178 10172 10168 10165 10162 10160 10159 10158
10435 10431 10427 10423 10419 10415 10410 10404 10399 10395 10390 10384 10378 10370 10364 10357 10351 10345 10338 10332 10325 10316 10307 10298 10290 10281 10272 10261 10250 10239 10228 10219 10209 10201 10192 10184 10177 10172 10167 10163 10160 10157 10155 10154